This demonstration page uses our WeatherBlox Daily Observations layout. Learn more.

39.29038, -76.61219

Hourly Observations for August 1, 2020

Temp ( °F °C ) Dew Point ( °F °C ) Humidity (%) Winds ( mph kmh ) Pressure ( in mb ) Visibility ( mi km ) Precip ( " mm )
12:54 am 00:54 Cloudy 74 23.3 71 21.7 91 91 W 3 6 29.88 1012 7 11.26538 0 0
1:54 am 01:54 Cloudy 74 23.3 71 21.7 91 91 W 3 6 29.88 1012 7 11.26538 0 0
2:54 am 02:54 Mostly Cloudy 74 23.3 71 21.7 91 91 NNW 5 7 29.86 1011 7 11.26538 0 0
3:54 am 03:54 Mostly Clear 73 22.8 71 21.7 94 94 Calm 29.85 1011 8 12.87472 0 0
4:54 am 04:54 Mostly Clear 72 22.2 70 21.1 94 94 Calm 29.86 1011 8 12.87472 0 0
5:54 am 05:54 Clear 72 22.2 69 20.6 91 91 Calm 29.88 1012 10 16.0934 0 0
6:54 am 06:54 Partly Cloudy 72 22.2 69 20.6 91 91 Calm 29.9 1013 7 11.26538 0 0
7:54 am 07:54 Mostly Cloudy 76 24.4 71 21.7 85 85 Calm 29.93 1013 10 16.0934 0 0
8:54 am 08:54 Mostly Cloudy 79 26.1 71 21.7 77 77 VRB 5 7 29.94 1014 10 16.0934 0 0
9:54 am 09:54 Mostly Cloudy 80 26.7 71 21.7 74 74 SSE 3 6 29.95 1014 10 16.0934 0 0
10:54 am 10:54 Cloudy 82 27.8 70 21.1 67 67 E 3 6 29.96 1015 10 16.0934 0 0
11:54 am 11:54 Cloudy 84 28.9 70 21.1 63 63 ESE 3 6 29.96 1015 10 16.0934 0 0
12:54 pm 12:54 Mostly Cloudy 85 29.4 69 20.6 59 59 SSE 6 9 29.95 1014 10 16.0934 0 0
1:54 pm 13:54 Mostly Cloudy 87 30.6 68 20 53 53 S 6 9 29.94 1014 10 16.0934 0 0
2:54 pm 14:54 Partly Cloudy 88 31.1 68 20 52 52 SSE 7 11 29.92 1013 10 16.0934 0 0
3:54 pm 15:54 Mostly Cloudy 86 30 67 19.4 53 53 SSE 9 15 29.91 1013 10 16.0934 0 0
4:54 pm 16:54 Mostly Cloudy 87 30.6 67 19.4 51 51 SE 7 11 29.88 1012 10 16.0934 0 0
5:54 pm 17:54 Partly Cloudy 87 30.6 67 19.4 51 51 SSE 8 13 29.89 1012 10 16.0934 0 0
6:54 pm 18:54 Mostly Cloudy 84 28.9 67 19.4 57 57 SSE 7 11 29.91 1013 10 16.0934 0 0
7:54 pm 19:54 Mostly Cloudy 83 28.3 70 21.1 65 65 SE 6 9 29.92 1013 10 16.0934 0 0
8:54 pm 20:54 Mostly Cloudy 82 27.8 71 21.7 69 69 SE 5 7 29.92 1013 10 16.0934 0 0
9:54 pm 21:54 Partly Cloudy 81 27.2 71 21.7 72 72 SSE 5 7 29.92 1013 10 16.0934 0 0
10:54 pm 22:54 Partly Cloudy 80 26.7 72 22.2 76 76 SSE 3 6 29.91 1013 10 16.0934 0 0
11:54 pm 23:54 Mostly Cloudy 80 26.7 73 22.8 79 79 Calm 29.9 1013 10 16.0934 0 0

Powered by AerisWeather